Year,Month,Day,Hour,Minute,Value (Times are PST for temperature in C)
2017,10,15,00,00,3.70
2017,10,15,00,01,3.70
2017,10,15,00,02,3.70
2017,10,15,00,03,3.70
2017,10,15,00,04,3.70
2017,10,15,00,05,3.70
2017,10,15,00,06,3.70
2017,10,15,00,07,3.70
2017,10,15,00,08,3.70
2017,10,15,00,09,3.70
2017,10,15,00,10,3.70
2017,10,15,00,11,3.70
2017,10,15,00,12,3.70
2017,10,15,00,13,3.80
2017,10,15,00,14,3.80
2017,10,15,00,15,3.80
2017,10,15,00,16,3.80
2017,10,15,00,17,3.80
2017,10,15,00,18,3.80
2017,10,15,00,19,3.80
2017,10,15,00,20,3.80
2017,10,15,00,21,3.80
2017,10,15,00,22,3.80
2017,10,15,00,23,3.80
2017,10,15,00,24,3.80
2017,10,15,00,25,3.80
2017,10,15,00,26,3.80
2017,10,15,00,27,3.80
2017,10,15,00,28,3.80
2017,10,15,00,29,3.80
2017,10,15,00,30,3.80
2017,10,15,00,31,3.80
2017,10,15,00,32,3.80
2017,10,15,00,33,3.80
2017,10,15,00,34,3.70
2017,10,15,00,35,3.70
2017,10,15,00,36,3.70
2017,10,15,00,37,3.70
2017,10,15,00,38,3.70
2017,10,15,00,39,3.70
2017,10,15,00,40,3.70
2017,10,15,00,41,3.70
2017,10,15,00,42,3.70
2017,10,15,00,43,3.70
2017,10,15,00,44,3.70
2017,10,15,00,45,3.70
2017,10,15,00,46,3.70
2017,10,15,00,47,3.70
2017,10,15,00,48,3.70
2017,10,15,00,49,3.70
2017,10,15,00,50,3.70
2017,10,15,00,51,3.70
2017,10,15,00,52,3.70
2017,10,15,00,53,3.70
2017,10,15,00,54,3.80
2017,10,15,00,55,3.80
2017,10,15,00,56,3.80
2017,10,15,00,57,3.80
2017,10,15,00,58,3.80
2017,10,15,00,59,3.80
2017,10,15,01,00,3.80
2017,10,15,01,01,3.80
2017,10,15,01,02,3.80
2017,10,15,01,03,3.80
2017,10,15,01,04,3.80
2017,10,15,01,05,3.80
2017,10,15,01,06,3.80
2017,10,15,01,07,3.80
2017,10,15,01,08,3.80
2017,10,15,01,09,3.80
2017,10,15,01,10,3.80
2017,10,15,01,11,3.80
2017,10,15,01,12,3.80
2017,10,15,01,13,3.80
2017,10,15,01,14,3.80
2017,10,15,01,15,3.80
2017,10,15,01,16,3.80
2017,10,15,01,17,3.80
2017,10,15,01,18,3.80
2017,10,15,01,19,3.80
2017,10,15,01,20,3.80
2017,10,15,01,21,3.80
2017,10,15,01,22,3.80
2017,10,15,01,23,3.80
2017,10,15,01,24,3.80
2017,10,15,01,25,3.80
2017,10,15,01,26,3.80
2017,10,15,01,27,3.80
2017,10,15,01,28,3.80
2017,10,15,01,29,3.80
2017,10,15,01,30,3.80
2017,10,15,01,31,3.80
2017,10,15,01,32,3.80
2017,10,15,01,33,3.80
2017,10,15,01,34,3.80
2017,10,15,01,35,3.80
2017,10,15,01,36,3.80
2017,10,15,01,37,3.80
2017,10,15,01,38,3.80
2017,10,15,01,39,3.80
2017,10,15,01,40,3.80
2017,10,15,01,41,3.80
2017,10,15,01,42,3.80
2017,10,15,01,43,3.80
2017,10,15,01,44,3.70
2017,10,15,01,45,3.70
2017,10,15,01,46,3.70
2017,10,15,01,47,3.70
2017,10,15,01,48,3.70
2017,10,15,01,49,3.70
2017,10,15,01,50,3.70
2017,10,15,01,51,3.70
2017,10,15,01,52,3.70
2017,10,15,01,53,3.70
2017,10,15,01,54,3.70
2017,10,15,01,55,3.70
2017,10,15,01,56,3.70
2017,10,15,01,57,3.70
2017,10,15,01,58,3.70
2017,10,15,01,59,3.70
2017,10,15,02,00,3.70
2017,10,15,02,01,3.70
2017,10,15,02,02,3.70
2017,10,15,02,03,3.70
2017,10,15,02,04,3.70
2017,10,15,02,05,3.70
2017,10,15,02,06,3.70
2017,10,15,02,07,3.70
2017,10,15,02,08,3.70
2017,10,15,02,09,3.70
2017,10,15,02,10,3.70
2017,10,15,02,11,3.70
2017,10,15,02,12,3.70
2017,10,15,02,13,3.70
2017,10,15,02,14,3.70
2017,10,15,02,15,3.70
2017,10,15,02,16,3.70
2017,10,15,02,17,3.70
2017,10,15,02,18,3.70
2017,10,15,02,19,3.70
2017,10,15,02,20,3.70
2017,10,15,02,21,3.70
2017,10,15,02,22,3.70
2017,10,15,02,23,3.70
2017,10,15,02,24,3.70
2017,10,15,02,25,3.70
2017,10,15,02,26,3.70
2017,10,15,02,27,3.70
2017,10,15,02,28,3.70
2017,10,15,02,29,3.70
2017,10,15,02,30,3.70
2017,10,15,02,31,3.70
2017,10,15,02,32,3.70
2017,10,15,02,33,3.60
2017,10,15,02,34,3.60
2017,10,15,02,35,3.60
2017,10,15,02,36,3.60
2017,10,15,02,37,3.60
2017,10,15,02,38,3.60
2017,10,15,02,39,3.60
2017,10,15,02,40,3.60
2017,10,15,02,41,3.60
2017,10,15,02,42,3.60
2017,10,15,02,43,3.70
2017,10,15,02,44,3.70
2017,10,15,02,45,3.70
2017,10,15,02,46,3.70
2017,10,15,02,47,3.70
2017,10,15,02,48,3.70
2017,10,15,02,49,3.70
2017,10,15,02,50,3.70
2017,10,15,02,51,3.70
2017,10,15,02,52,3.70
2017,10,15,02,53,3.70
2017,10,15,02,54,3.70
2017,10,15,02,55,3.70
2017,10,15,02,56,3.70
2017,10,15,02,57,3.70
2017,10,15,02,58,3.70
2017,10,15,02,59,3.70
2017,10,15,03,00,3.70
2017,10,15,03,01,3.70
2017,10,15,03,02,3.70
2017,10,15,03,03,3.70
2017,10,15,03,04,3.80
2017,10,15,03,05,3.80
2017,10,15,03,06,3.80
2017,10,15,03,07,3.80
2017,10,15,03,08,3.80
2017,10,15,03,09,3.80
2017,10,15,03,10,3.80
2017,10,15,03,11,3.80
2017,10,15,03,12,3.80
2017,10,15,03,13,3.80
2017,10,15,03,14,3.80
2017,10,15,03,15,3.80
2017,10,15,03,16,3.80
2017,10,15,03,17,3.80
2017,10,15,03,18,3.80
2017,10,15,03,19,3.80
2017,10,15,03,20,3.80
2017,10,15,03,21,3.80
2017,10,15,03,22,3.80
2017,10,15,03,23,3.70
2017,10,15,03,24,3.70
2017,10,15,03,25,3.70
2017,10,15,03,26,3.70
2017,10,15,03,27,3.70
2017,10,15,03,28,3.70
2017,10,15,03,29,3.70
2017,10,15,03,30,3.70
2017,10,15,03,31,3.70
2017,10,15,03,32,3.70
2017,10,15,03,33,3.70
2017,10,15,03,34,3.70
2017,10,15,03,35,3.70
2017,10,15,03,36,3.70
2017,10,15,03,37,3.70
2017,10,15,03,38,3.70
2017,10,15,03,39,3.70
2017,10,15,03,40,3.70
2017,10,15,03,41,3.70
2017,10,15,03,42,3.70
2017,10,15,03,43,3.70
2017,10,15,03,44,3.70
2017,10,15,03,45,3.70
2017,10,15,03,46,3.70
2017,10,15,03,47,3.70
2017,10,15,03,48,3.70
2017,10,15,03,49,3.70
2017,10,15,03,50,3.70
2017,10,15,03,51,3.70
2017,10,15,03,52,3.70
2017,10,15,03,53,3.70
2017,10,15,03,54,3.70
2017,10,15,03,55,3.70
2017,10,15,03,56,3.70
2017,10,15,03,57,3.70
2017,10,15,03,58,3.70
2017,10,15,03,59,3.70
2017,10,15,04,00,3.70
2017,10,15,04,01,3.70
2017,10,15,04,02,3.70
2017,10,15,04,03,3.70
2017,10,15,04,04,3.80
2017,10,15,04,05,3.80
2017,10,15,04,06,3.80
2017,10,15,04,07,3.80
2017,10,15,04,08,3.80
2017,10,15,04,09,3.80
2017,10,15,04,10,3.80
2017,10,15,04,11,3.80
2017,10,15,04,12,3.80
2017,10,15,04,13,3.80
2017,10,15,04,14,3.90
2017,10,15,04,15,3.90
2017,10,15,04,16,3.90
2017,10,15,04,17,3.90
2017,10,15,04,18,3.90
2017,10,15,04,19,3.90
2017,10,15,04,20,3.90
2017,10,15,04,21,3.90
2017,10,15,04,22,3.90
2017,10,15,04,23,3.90
2017,10,15,04,24,3.90
2017,10,15,04,25,3.90
2017,10,15,04,26,3.90
2017,10,15,04,27,3.90
2017,10,15,04,28,3.90
2017,10,15,04,29,3.90
2017,10,15,04,30,3.90
2017,10,15,04,31,3.90
2017,10,15,04,32,3.90
2017,10,15,04,33,3.90
2017,10,15,04,34,4.00
2017,10,15,04,35,4.00
2017,10,15,04,36,4.00
2017,10,15,04,37,4.00
2017,10,15,04,38,4.00
2017,10,15,04,39,4.00
2017,10,15,04,40,4.00
2017,10,15,04,41,4.00
2017,10,15,04,42,4.00
2017,10,15,04,43,3.90
2017,10,15,04,44,3.90
2017,10,15,04,45,3.90
2017,10,15,04,46,3.90
2017,10,15,04,47,3.90
2017,10,15,04,48,3.90
2017,10,15,04,49,3.90
2017,10,15,04,50,3.90
2017,10,15,04,51,3.90
2017,10,15,04,52,3.90
2017,10,15,04,53,3.90
2017,10,15,04,54,3.90
2017,10,15,04,55,3.90
2017,10,15,04,56,3.90
2017,10,15,04,57,3.90
2017,10,15,04,58,3.90
2017,10,15,04,59,3.90
2017,10,15,05,00,3.90
2017,10,15,05,01,3.90
2017,10,15,05,02,3.90
2017,10,15,05,03,3.90
2017,10,15,05,04,3.90
2017,10,15,05,05,3.90
2017,10,15,05,06,3.90
2017,10,15,05,07,3.90
2017,10,15,05,08,3.90
2017,10,15,05,09,3.90
2017,10,15,05,10,3.90
2017,10,15,05,11,3.90
2017,10,15,05,12,3.90
2017,10,15,05,13,3.90
2017,10,15,05,14,3.90
2017,10,15,05,15,3.90
2017,10,15,05,16,3.90
2017,10,15,05,17,3.90
2017,10,15,05,18,3.90
2017,10,15,05,19,3.90
2017,10,15,05,20,3.90
2017,10,15,05,21,3.90
2017,10,15,05,22,3.90
2017,10,15,05,23,3.90
2017,10,15,05,24,4.00
2017,10,15,05,25,4.00
2017,10,15,05,26,4.00
2017,10,15,05,27,4.00
2017,10,15,05,28,4.00
2017,10,15,05,29,4.00
2017,10,15,05,30,4.00
2017,10,15,05,31,4.00
2017,10,15,05,32,4.00
2017,10,15,05,33,3.90
2017,10,15,05,34,3.90
2017,10,15,05,35,3.90
2017,10,15,05,36,3.90
2017,10,15,05,37,3.90
2017,10,15,05,38,3.90
2017,10,15,05,39,3.90
2017,10,15,05,40,3.90
2017,10,15,05,41,3.90
2017,10,15,05,42,3.90
2017,10,15,05,43,3.90
2017,10,15,05,44,4.00
2017,10,15,05,45,4.00
2017,10,15,05,46,4.00
2017,10,15,05,47,4.00
2017,10,15,05,48,4.00
2017,10,15,05,49,4.00
2017,10,15,05,50,4.00
2017,10,15,05,51,4.00
2017,10,15,05,52,4.00
2017,10,15,05,53,4.00
2017,10,15,05,54,4.00
2017,10,15,05,55,4.00
2017,10,15,05,56,4.00
2017,10,15,05,57,4.00
2017,10,15,05,58,4.00
2017,10,15,05,59,4.00
2017,10,15,06,00,4.00
2017,10,15,06,01,4.00
2017,10,15,06,02,4.00
2017,10,15,06,03,4.00
2017,10,15,06,04,4.00
2017,10,15,06,05,4.00
2017,10,15,06,06,4.00
2017,10,15,06,07,4.00
2017,10,15,06,08,4.00
2017,10,15,06,09,4.00
2017,10,15,06,10,4.00
2017,10,15,06,11,4.00
2017,10,15,06,12,4.00
2017,10,15,06,13,4.00
2017,10,15,06,14,4.00
2017,10,15,06,15,4.00
2017,10,15,06,16,4.00
2017,10,15,06,17,4.00
2017,10,15,06,18,4.00
2017,10,15,06,19,4.00
2017,10,15,06,20,4.00
2017,10,15,06,21,4.00
2017,10,15,06,22,4.00
2017,10,15,06,23,4.00
2017,10,15,06,24,4.10
2017,10,15,06,25,4.10
2017,10,15,06,26,4.10
2017,10,15,06,27,4.10
2017,10,15,06,28,4.10
2017,10,15,06,29,4.10
2017,10,15,06,30,4.10
2017,10,15,06,31,4.10
2017,10,15,06,32,4.10
2017,10,15,06,33,4.10
2017,10,15,06,34,4.10
2017,10,15,06,35,4.00
2017,10,15,06,36,4.00
2017,10,15,06,37,4.00
2017,10,15,06,38,4.00
2017,10,15,06,39,4.00
2017,10,15,06,40,4.00
2017,10,15,06,41,4.00
2017,10,15,06,42,4.00
2017,10,15,06,43,4.00
2017,10,15,06,44,4.00
2017,10,15,06,45,4.00
2017,10,15,06,46,4.00
2017,10,15,06,47,4.00
2017,10,15,06,48,4.00
2017,10,15,06,49,4.00
2017,10,15,06,50,4.00
2017,10,15,06,51,4.00
2017,10,15,06,52,4.00
2017,10,15,06,53,3.90
2017,10,15,06,54,3.90
2017,10,15,06,55,3.90
2017,10,15,06,56,3.90
2017,10,15,06,57,3.90
2017,10,15,06,58,3.90
2017,10,15,06,59,3.90
2017,10,15,07,00,3.90
2017,10,15,07,01,3.90
2017,10,15,07,02,3.90
2017,10,15,07,03,3.90
2017,10,15,07,04,3.90
2017,10,15,07,05,3.90
2017,10,15,07,06,3.90
2017,10,15,07,07,3.90
2017,10,15,07,08,3.90
2017,10,15,07,09,3.90
2017,10,15,07,10,3.90
2017,10,15,07,11,3.90
2017,10,15,07,12,3.90
2017,10,15,07,13,3.90
2017,10,15,07,14,3.90
2017,10,15,07,15,3.90
2017,10,15,07,16,3.90
2017,10,15,07,17,3.90
2017,10,15,07,18,3.90
2017,10,15,07,19,3.90
2017,10,15,07,20,3.90
2017,10,15,07,21,3.90
2017,10,15,07,22,3.90
2017,10,15,07,23,3.90
2017,10,15,07,24,3.90
2017,10,15,07,25,3.90
2017,10,15,07,26,3.90
2017,10,15,07,27,3.90
2017,10,15,07,28,3.90
2017,10,15,07,29,3.90
2017,10,15,07,30,3.90
2017,10,15,07,31,3.90
2017,10,15,07,32,3.90
2017,10,15,07,33,3.90
2017,10,15,07,34,3.90
2017,10,15,07,35,3.90
2017,10,15,07,36,3.90
2017,10,15,07,37,3.90
2017,10,15,07,38,3.90
2017,10,15,07,39,3.90
2017,10,15,07,40,3.90
2017,10,15,07,41,3.90
2017,10,15,07,42,3.90
2017,10,15,07,43,4.00
2017,10,15,07,44,4.00
2017,10,15,07,45,4.00
2017,10,15,07,46,4.00
2017,10,15,07,47,4.00
2017,10,15,07,48,4.00
2017,10,15,07,49,4.00
2017,10,15,07,50,4.00
2017,10,15,07,51,4.00
2017,10,15,07,52,4.00
2017,10,15,07,53,4.00
2017,10,15,07,54,4.00
2017,10,15,07,55,4.00
2017,10,15,07,56,4.00
2017,10,15,07,57,4.00
2017,10,15,07,58,4.00
2017,10,15,07,59,4.00
2017,10,15,08,00,4.00
2017,10,15,08,01,4.00
2017,10,15,08,02,4.00
2017,10,15,08,03,4.10
2017,10,15,08,04,4.10
2017,10,15,08,05,4.10
2017,10,15,08,06,4.10
2017,10,15,08,07,4.10
2017,10,15,08,08,4.10
2017,10,15,08,09,4.10
2017,10,15,08,10,4.10
2017,10,15,08,11,4.10
2017,10,15,08,12,4.10
2017,10,15,08,13,4.10
2017,10,15,08,14,4.10
2017,10,15,08,15,4.10
2017,10,15,08,16,4.10
2017,10,15,08,17,4.10
2017,10,15,08,18,4.10
2017,10,15,08,19,4.10
2017,10,15,08,20,4.10
2017,10,15,08,21,4.10
2017,10,15,08,22,4.10
2017,10,15,08,23,4.10
2017,10,15,08,24,4.00
2017,10,15,08,25,4.00
2017,10,15,08,26,4.00
2017,10,15,08,27,4.00
2017,10,15,08,28,4.00
2017,10,15,08,29,4.00
2017,10,15,08,30,4.00
2017,10,15,08,31,4.00
2017,10,15,08,32,4.00
2017,10,15,08,33,4.00
2017,10,15,08,34,4.00
2017,10,15,08,35,4.10
2017,10,15,08,36,4.10
2017,10,15,08,37,4.10
2017,10,15,08,38,4.10
2017,10,15,08,39,4.10
2017,10,15,08,40,4.10
2017,10,15,08,41,4.10
2017,10,15,08,42,4.10
2017,10,15,08,43,4.10
2017,10,15,08,44,4.10
2017,10,15,08,45,4.10
2017,10,15,08,46,4.10
2017,10,15,08,47,4.10
2017,10,15,08,48,4.10
2017,10,15,08,49,4.10
2017,10,15,08,50,4.10
2017,10,15,08,51,4.10
2017,10,15,08,52,4.10
2017,10,15,08,53,4.20
2017,10,15,08,54,4.20
2017,10,15,08,55,4.20
2017,10,15,08,56,4.20
2017,10,15,08,57,4.20
2017,10,15,08,58,4.20
2017,10,15,08,59,4.20
2017,10,15,09,00,4.20
2017,10,15,09,01,4.20
2017,10,15,09,02,4.20
2017,10,15,09,03,4.20
2017,10,15,09,04,4.30
2017,10,15,09,05,4.30
2017,10,15,09,06,4.30
2017,10,15,09,07,4.30
2017,10,15,09,08,4.30
2017,10,15,09,09,4.30
2017,10,15,09,10,4.30
2017,10,15,09,11,4.30
2017,10,15,09,12,4.30
2017,10,15,09,13,4.40
2017,10,15,09,14,4.40
2017,10,15,09,15,4.40
2017,10,15,09,16,4.40
2017,10,15,09,17,4.40
2017,10,15,09,18,4.40
2017,10,15,09,19,4.40
2017,10,15,09,20,4.40
2017,10,15,09,21,4.40
2017,10,15,09,22,4.40
2017,10,15,09,23,4.40
2017,10,15,09,24,4.40
2017,10,15,09,25,4.40
2017,10,15,09,26,4.40
2017,10,15,09,27,4.40
2017,10,15,09,28,4.40
2017,10,15,09,29,4.40
2017,10,15,09,30,4.40
2017,10,15,09,31,4.40
2017,10,15,09,32,4.40
2017,10,15,09,33,4.60
2017,10,15,09,34,4.60
2017,10,15,09,35,4.60
2017,10,15,09,36,4.60
2017,10,15,09,37,4.60
2017,10,15,09,38,4.60
2017,10,15,09,39,4.60
2017,10,15,09,40,4.60
2017,10,15,09,41,4.60
2017,10,15,09,42,4.60
2017,10,15,09,43,4.60
2017,10,15,09,44,4.60
2017,10,15,09,45,4.60
2017,10,15,09,46,4.60
2017,10,15,09,47,4.60
2017,10,15,09,48,4.60
2017,10,15,09,49,4.60
2017,10,15,09,50,4.60
2017,10,15,09,51,4.60
2017,10,15,09,52,4.60
2017,10,15,09,53,4.60
2017,10,15,09,54,4.60
2017,10,15,09,55,4.70
2017,10,15,09,56,4.70
2017,10,15,09,57,4.70
2017,10,15,09,58,4.70
2017,10,15,09,59,4.70
2017,10,15,10,00,4.70
2017,10,15,10,01,4.70
2017,10,15,10,02,4.70
2017,10,15,10,03,4.70
2017,10,15,10,04,4.90
2017,10,15,10,05,4.90
2017,10,15,10,06,4.90
2017,10,15,10,07,4.90
2017,10,15,10,08,4.90
2017,10,15,10,09,4.90
2017,10,15,10,10,4.90
2017,10,15,10,11,4.90
2017,10,15,10,12,4.90
2017,10,15,10,13,4.90
2017,10,15,10,14,5.10
2017,10,15,10,15,5.10
2017,10,15,10,16,5.10
2017,10,15,10,17,5.10
2017,10,15,10,18,5.10
2017,10,15,10,19,5.10
2017,10,15,10,20,5.10
2017,10,15,10,21,5.10
2017,10,15,10,22,5.10
2017,10,15,10,23,5.10
2017,10,15,10,24,5.20
2017,10,15,10,25,5.20
2017,10,15,10,26,5.20
2017,10,15,10,27,5.20
2017,10,15,10,28,5.20
2017,10,15,10,29,5.20
2017,10,15,10,30,5.20
2017,10,15,10,31,5.20
2017,10,15,10,32,5.20
2017,10,15,10,33,5.30
2017,10,15,10,34,5.30
2017,10,15,10,35,5.30
2017,10,15,10,36,5.30
2017,10,15,10,37,5.30
2017,10,15,10,38,5.30
2017,10,15,10,39,5.30
2017,10,15,10,40,5.30
2017,10,15,10,41,5.30
2017,10,15,10,42,5.30
2017,10,15,10,43,5.30
2017,10,15,10,44,5.30
2017,10,15,10,45,5.30
2017,10,15,10,46,5.30
2017,10,15,10,47,5.30
2017,10,15,10,48,5.30
2017,10,15,10,49,5.30
2017,10,15,10,50,5.30
2017,10,15,10,51,5.30
2017,10,15,10,52,5.30
2017,10,15,10,53,5.60
2017,10,15,10,54,5.60
2017,10,15,10,55,5.60
2017,10,15,10,56,5.60
2017,10,15,10,57,5.60
2017,10,15,10,58,5.60
2017,10,15,10,59,5.60
2017,10,15,11,00,5.60
2017,10,15,11,01,5.60
2017,10,15,11,02,5.60
2017,10,15,11,03,5.60
2017,10,15,11,04,5.60
2017,10,15,11,05,5.60
2017,10,15,11,06,5.60
2017,10,15,11,07,5.60
2017,10,15,11,08,5.60
2017,10,15,11,09,5.60
2017,10,15,11,10,5.60
2017,10,15,11,11,5.60
2017,10,15,11,12,5.60
2017,10,15,11,13,5.80
2017,10,15,11,14,5.80
2017,10,15,11,15,5.80
2017,10,15,11,16,5.80
2017,10,15,11,17,5.80
2017,10,15,11,18,5.80
2017,10,15,11,19,5.80
2017,10,15,11,20,5.80
2017,10,15,11,21,5.80
2017,10,15,11,22,5.80
2017,10,15,11,23,5.80
2017,10,15,11,24,6.00
2017,10,15,11,25,6.00
2017,10,15,11,26,6.00
2017,10,15,11,27,6.00
2017,10,15,11,28,6.00
2017,10,15,11,29,6.00
2017,10,15,11,30,6.00
2017,10,15,11,31,6.00
2017,10,15,11,32,6.00
2017,10,15,11,33,6.00
2017,10,15,11,34,6.00
2017,10,15,11,35,6.00
2017,10,15,11,36,6.00
2017,10,15,11,37,6.00
2017,10,15,11,38,6.00
2017,10,15,11,39,6.00
2017,10,15,11,40,6.00
2017,10,15,11,41,6.00
2017,10,15,11,42,6.00
2017,10,15,11,43,6.00
2017,10,15,11,44,6.00
2017,10,15,11,45,6.00
2017,10,15,11,46,6.00
2017,10,15,11,47,6.00
2017,10,15,11,48,6.00
2017,10,15,11,49,6.00
2017,10,15,11,50,6.00
2017,10,15,11,51,6.00
2017,10,15,11,52,6.00
2017,10,15,11,53,6.00
2017,10,15,11,54,6.00
2017,10,15,11,55,6.00
2017,10,15,11,56,6.00
2017,10,15,11,57,6.00
2017,10,15,11,58,6.00
2017,10,15,11,59,6.00
2017,10,15,12,00,6.00
2017,10,15,12,01,6.00
2017,10,15,12,02,6.00
2017,10,15,12,03,6.00
2017,10,15,12,04,6.00
2017,10,15,12,05,6.00
2017,10,15,12,06,6.00
2017,10,15,12,07,6.00
2017,10,15,12,08,6.00
2017,10,15,12,09,6.00
2017,10,15,12,10,6.00
2017,10,15,12,11,6.00
2017,10,15,12,12,6.00
2017,10,15,12,13,6.00
2017,10,15,12,14,6.00
2017,10,15,12,15,6.00
